Weather History for Craig, CO

Change the Weather History Date:

Friday, October 5, 2012

  Actual Average Record
Temperature  
Mean Temperature 42 °F 47 °F  
Max Temperature 57 °F 66 °F 78 °F (1997)
Min Temperature 26 °F 29 °F 19 °F (1999)
Degree Days  
Heating Degree Days 23 18  
Month to date heating degree days 77 84  
Since 1 July heating degree days 309 449  
Cooling Degree Days 0 0  
Month to date cooling degree days 0 0  
Year to date cooling degree days 344 142  
Moisture  
Dew Point 18 °F    
Average Humidity 46    
Maximum Humidity 75    
Minimum Humidity 17    
Precipitation  
Precipitation 0.00 in 0.05 in 0.44 in (2008)
Month to date precipitation 0.00 0.31  
Year to date precipitation 4.76 12.27  
Sea Level Pressure  
Sea Level Pressure 30.10 in    
Wind  
Wind Speed 6 mph (WNW)    
Max Wind Speed 15 mph    
Max Gust Speed 21 mph    
Visibility 10 miles    
Events      
T = Trace of Precipitation, MM = Missing Value Source: NWS Daily Summary

Daily Weather History Graph

Daily Weather History Graph

Search for Another Location

Airport:

Trip Planner

Search our weather history database for the weather conditions in past years. The results will help you decide how hot, cold, wet, or windy it might be!

Date:

Astronomy

Oct. 05, 2012 Rise Set
Actual Time 7:11 AM MDT 6:44 PM MDT
Civil Twilight 6:43 AM MDT 7:12 PM MDT
Nautical Twilight 6:12 AM MDT 7:43 PM MDT
Astronomical Twilight 5:40 AM MDT 8:15 PM MDT
Moon 10:09 PM MDT (10/5) 12:22 PM MDT (10/5)
Length of Visible Light 12h 28m
Length of Day
11h 33m
Waning Gibbous, 73% of the Moon is Illuminated
Oct 5
Waning Gibbous
Oct 8
Last Quarter
Oct 15
New
Oct 21
First Quarter
Oct 29
Full

Hourly Weather History & Observations

Time (MDT) Temp. Windchill Dew Point Humidity Pressure Visibility Wind Dir Wind Speed Gust Speed Precip Events Conditions
12:53 AM 37.0 °F 34.5 °F 26.1 °F 65% 30.00 in 10.0 mi NW 3.5 mph - N/A   Overcast
1:53 AM 41.0 °F 38.0 °F 25.0 °F 53% 29.96 in 10.0 mi NW 4.6 mph - N/A   Overcast
2:53 AM 42.1 °F 36.6 °F 24.1 °F 49% 29.96 in 10.0 mi SSW 9.2 mph - N/A   Overcast
3:53 AM 37.0 °F - 23.0 °F 57% 29.98 in 10.0 mi Calm Calm - N/A   Clear
4:53 AM 32.0 °F 24.8 °F 21.9 °F 66% 30.02 in 10.0 mi SW 8.1 mph - N/A   Clear
5:53 AM 30.0 °F - 21.0 °F 69% 30.08 in 10.0 mi Calm Calm - N/A   Clear
6:53 AM 30.0 °F 23.2 °F 19.9 °F 66% 30.14 in 10.0 mi WSW 6.9 mph - N/A   Clear
7:53 AM 33.1 °F - 21.0 °F 61% 30.20 in 10.0 mi Calm Calm - N/A   Clear
8:53 AM 39.0 °F 31.8 °F 21.0 °F 49% 30.20 in 10.0 mi West 11.5 mph - N/A   Clear
9:53 AM 43.0 °F 38.8 °F 21.0 °F 42% 30.21 in 10.0 mi WNW 6.9 mph - N/A   Clear
10:53 AM 48.2 °F - 21.2 °F 34% 30.21 in 10.0 mi Variable 6.9 mph - N/A   Clear
11:53 AM 50.0 °F - 19.0 °F 29% 30.18 in 10.0 mi WNW 9.2 mph - N/A   Clear
12:53 PM 52.0 °F - 17.1 °F 25% 30.14 in 10.0 mi Variable 5.8 mph 17.3 mph N/A   Clear
1:53 PM 53.1 °F - 12.0 °F 20% 30.11 in 10.0 mi NW 9.2 mph 20.7 mph N/A   Clear
2:53 PM 54.0 °F - 12.0 °F 19% 30.08 in 10.0 mi NNW 6.9 mph - N/A   Clear
3:53 PM 57.0 °F - 12.0 °F 17% 30.07 in 10.0 mi NNW 8.1 mph - N/A   Clear
4:53 PM 54.0 °F - 10.9 °F 18% 30.08 in 10.0 mi NNW 5.8 mph - N/A   Clear
5:53 PM 52.0 °F - 12.9 °F 21% 30.08 in 10.0 mi WSW 4.6 mph - N/A   Clear
6:53 PM 43.0 °F 41.3 °F 16.0 °F 34% 30.12 in 10.0 mi SE 3.5 mph - N/A   Clear
7:53 PM 39.0 °F 32.3 °F 17.1 °F 41% 30.13 in 10.0 mi North 10.4 mph - N/A   Clear
8:53 PM 37.0 °F - 16.0 °F 42% 30.11 in 10.0 mi Calm Calm - N/A   Clear
9:53 PM 32.0 °F - 16.0 °F 52% 30.11 in 10.0 mi Calm Calm - N/A   Clear
10:53 PM 28.0 °F 20.8 °F 19.0 °F 69% 30.12 in 10.0 mi SSE 6.9 mph - N/A   Clear
11:53 PM 27.0 °F 21.6 °F 19.0 °F 72% 30.14 in 10.0 mi West 4.6 mph - N/A   Clear